Pittsfield, MA

2:08 PM EST on February 12, 2016 (GMT -0500)
Pittsfield Municipal

Weather History for KPSF - May, 2014

Change the Weather History Date:

Friday, May 9, 2014

  Actual Average Record
Temperature  
Mean Temperature 55 °F 53 °F  
Max Temperature 59 °F 64 °F 90 °F (1936)
Min Temperature 51 °F 41 °F 25 °F (1956)
Degree Days  
Heating Degree Days 10 12  
Month to date heating degree days 119 123  
Since 1 July heating degree days 7535 7158  
Cooling Degree Days 0 0  
Month to date cooling degree days 0 0  
Year to date cooling degree days 1 2  
Growing Degree Days 4 (Base 50)    
Moisture  
Dew Point 53 °F    
Average Humidity 93    
Maximum Humidity 100    
Minimum Humidity 86    
Precipitation  
Precipitation T in 0.11 in 1.35 in (1941)
Month to date precipitation 0.62 0.99  
Year to date precipitation 13.57 13.82  
Sea Level Pressure  
Sea Level Pressure 30.10 in    
Wind  
Wind Speed 6 mph (SE)    
Max Wind Speed 15 mph    
Max Gust Speed 26 mph    
Visibility 5 miles    
Events Thunderstorm    
T = Trace of Precipitation, MM = Missing Value Source: NWS Daily Summary

Daily Weather History Graph

Daily Weather History Graph

Search for Another Location

Airport or City:

Trip Planner

Search our weather history database for the weather conditions in past years. The results will help you decide how hot, cold, wet, or windy it might be!

Date:

Astronomy

May. 09, 2014 Rise Set
Actual Time 5:38 AM EDT 8:01 PM EDT
Civil Twilight 5:06 AM EDT 8:33 PM EDT
Nautical Twilight 4:27 AM EDT 9:12 PM EDT
Astronomical Twilight 3:43 AM EDT 9:56 PM EDT
Moon 2:50 PM EDT (5/9) 2:45 AM EDT (5/9)
Length of Visible Light 15h 26m
Length of Day
14h 23m
Waxing Gibbous, 73% of the Moon is Illuminated
May 9
Waxing Gibbous
May 14
Full
May 21
Last Quarter
May 28
New
Jun 5
First Quarter

Hourly Weather History & Observations

Time (EDT) Temp. Dew Point Humidity Pressure Visibility Wind Dir Wind Speed Gust Speed Precip Events Conditions
12:54 AM 53.1 °F 51.1 °F 93% 30.10 in 10.0 mi Calm Calm - N/A   Mostly Cloudy
1:54 AM 53.1 °F 50.0 °F 89% 30.11 in 10.0 mi SW 4.6 mph - N/A   Overcast
2:19 AM 53.1 °F 50.0 °F 89% 30.12 in 4.0 mi Calm Calm - N/A   Overcast
2:28 AM 53.1 °F 50.0 °F 89% 30.14 in 6.0 mi NW 4.6 mph - N/A   Overcast
2:54 AM 53.1 °F 50.0 °F 89% 30.09 in 10.0 mi SSE 3.5 mph - N/A   Overcast
3:54 AM 52.0 °F 50.0 °F 93% 30.08 in 8.0 mi Variable 3.5 mph - N/A   Overcast
5:17 AM 52.0 °F 50.0 °F 93% 30.16 in 4.0 mi Calm Calm - N/A Thunderstorm Overcast
5:25 AM 52.0 °F 50.0 °F 93% 30.14 in 2.5 mi SSE 6.9 mph - N/A Thunderstorm Overcast
5:33 AM 51.1 °F 50.0 °F 96% 30.14 in 2.0 mi SE 6.9 mph - N/A   Overcast
5:43 AM 52.0 °F 50.0 °F 93% 30.13 in 4.0 mi ESE 5.8 mph - N/A   Overcast
5:54 AM 51.1 °F 50.0 °F 96% 30.09 in 5.0 mi SE 6.9 mph - N/A   Overcast
6:10 AM 52.0 °F 50.0 °F 93% 30.14 in 3.0 mi NE 3.5 mph - N/A   Overcast
6:18 AM 52.0 °F 50.0 °F 93% 30.15 in 3.0 mi ENE 3.5 mph - 0.00 in   Overcast
6:31 AM 52.0 °F 51.1 °F 97% 30.14 in 2.0 mi Calm Calm - 0.00 in   Overcast
6:44 AM 52.0 °F 50.0 °F 93% 30.14 in 5.0 mi Variable 3.5 mph - 0.00 in   Overcast
6:54 AM 52.0 °F 51.1 °F 97% 30.10 in 4.0 mi ESE 3.5 mph - 0.00 in   Overcast
7:40 AM 52.0 °F 51.1 °F 97% 30.17 in 3.0 mi Calm Calm - N/A   Overcast
8:07 AM 53.1 °F 51.1 °F 93% 30.17 in 3.0 mi NE 3.5 mph - N/A   Overcast
8:15 AM 53.1 °F 52.0 °F 96% 30.16 in 2.5 mi NE 4.6 mph - N/A   Overcast
8:30 AM 53.1 °F 52.0 °F 96% 30.17 in 4.0 mi NNE 3.5 mph - N/A   Overcast
8:54 AM 54.0 °F 52.0 °F 93% 30.13 in 6.0 mi Calm Calm - N/A   Overcast
9:54 AM 55.0 °F 52.0 °F 89% 30.12 in 10.0 mi Calm Calm - N/A   Overcast
10:10 AM 55.9 °F 53.1 °F 90% 30.15 in 10.0 mi NE 3.5 mph - N/A   Overcast
10:54 AM 57.9 °F 53.1 °F 84% 30.12 in 10.0 mi SE 5.8 mph - N/A   Overcast
11:20 AM 57.0 °F 52.0 °F 83% 30.15 in 10.0 mi ESE 11.5 mph - N/A   Overcast
11:54 AM 57.0 °F 53.1 °F 87% 30.12 in 10.0 mi SE 11.5 mph - N/A   Overcast
12:22 PM 57.0 °F 53.1 °F 87% 30.14 in 10.0 mi SE 11.5 mph - N/A   Overcast
12:54 PM 57.9 °F 53.1 °F 84% 30.10 in 10.0 mi SE 10.4 mph 20.7 mph N/A   Overcast
1:03 PM 57.9 °F 53.1 °F 84% 30.13 in 10.0 mi SE 10.4 mph - N/A   Overcast
1:54 PM 57.9 °F 53.1 °F 84% 30.09 in 10.0 mi ESE 5.8 mph - N/A   Overcast
2:45 PM 57.9 °F 54.0 °F 87% 30.11 in 7.0 mi SE 11.5 mph 21.9 mph N/A   Overcast
2:54 PM 57.0 °F 54.0 °F 89% 30.08 in 3.0 mi SSE 12.7 mph 19.6 mph N/A   Overcast
3:04 PM 57.0 °F 54.0 °F 89% 30.11 in 2.5 mi SE 11.5 mph - N/A   Overcast
3:39 PM 57.0 °F 55.0 °F 93% 30.09 in 4.0 mi SE 12.7 mph - N/A   Overcast
3:54 PM 57.0 °F 55.0 °F 93% 30.06 in 5.0 mi SE 6.9 mph - N/A   Overcast
4:15 PM 57.0 °F 54.0 °F 89% 30.09 in 2.5 mi SE 8.1 mph 18.4 mph N/A   Overcast
4:25 PM 57.0 °F 55.0 °F 93% 30.08 in 3.0 mi SE 9.2 mph - N/A   Overcast
4:36 PM 57.0 °F 55.0 °F 93% 30.08 in 2.0 mi SE 10.4 mph - N/A   Overcast
4:54 PM 57.0 °F 55.0 °F 93% 30.04 in 2.5 mi SE 11.5 mph 18.4 mph N/A   Overcast
5:07 PM 57.0 °F 55.0 °F 93% 30.08 in 4.0 mi SE 9.2 mph 17.3 mph N/A   Overcast
5:52 PM 57.2 °F 55.4 °F 94% 30.07 in 1.8 mi SSE 8.1 mph - N/A   Overcast
5:54 PM 57.0 °F 55.0 °F 93% 30.04 in 1.8 mi SE 9.2 mph - N/A   Overcast
6:51 PM 57.2 °F 55.4 °F 94% 30.07 in 2.0 mi SE 11.5 mph - N/A   Overcast
6:54 PM 57.0 °F 55.0 °F 93% 30.04 in 2.0 mi SE 10.4 mph - N/A   Overcast
7:22 PM 57.0 °F 54.0 °F 89% 30.06 in 3.0 mi SE 11.5 mph - N/A   Overcast
7:54 PM 57.0 °F 54.0 °F 89% 30.03 in 6.0 mi Calm Calm - N/A   Overcast
8:54 PM 57.9 °F 54.0 °F 87% 30.01 in 10.0 mi SSE 9.2 mph - N/A   Overcast
9:54 PM 57.0 °F 54.0 °F 89% 30.01 in 10.0 mi Variable 5.8 mph - N/A   Overcast
10:54 PM 57.0 °F 55.0 °F 93% 30.00 in 3.0 mi Variable 3.5 mph - N/A   Overcast
11:54 PM 57.9 °F 55.9 °F 93% 29.98 in 4.0 mi Calm Calm - N/A   Overcast